| time (UTC) | temp F | wind direction | speed knots | gust knots | rain 1hr in | rain 24hr in | rain mn in | humidity % | barometer mb |
| 20260507093745 | 51 | 167 | 0.0 | 0.0 | 0.00 | 0.00 | 0.00 | 77 | 1025.6 |
| 20260507093244 | 51 | 172 | 0.0 | 0.0 | 0.00 | 0.00 | 0.00 | 76 | 1025.6 |
| 20260507092741 | 52 | 154 | 0.0 | 0.0 | 0.00 | 0.00 | 0.00 | 76 | 1025.6 |
| 20260507092237 | 52 | 177 | 0.0 | 0.0 | 0.00 | 0.00 | 0.00 | 75 | 1025.7 |
| 20260507091734 | 52 | 136 | 0.0 | 0.0 | 0.00 | 0.00 | 0.00 | 76 | 1025.7 |
| 20260507091230 | 52 | 191 | 0.0 | 2.6 | 0.00 | 0.00 | 0.00 | 76 | 1025.8 |
| 20260507090726 | 52 | 208 | 0.0 | 0.0 | 0.00 | 0.00 | 0.00 | 76 | 1025.7 |
| 20260507090222 | 52 | 198 | 0.0 | 0.0 | 0.00 | 0.00 | 0.00 | 77 | 1025.7 |
| 20260507085720 | 52 | 168 | 0.0 | 0.0 | 0.00 | 0.00 | 0.00 | 77 | 1025.6 |
| 20260507085217 | 52 | 193 | 0.0 | 0.0 | 0.00 | 0.00 | 0.00 | 77 | 1025.5 |
| 20260507084714 | 52 | 197 | 0.0 | 0.0 | 0.00 | 0.00 | 0.00 | 77 | 1025.6 |
| 20260507084210 | 52 | 187 | 0.0 | 2.6 | 0.00 | 0.00 | 0.00 | 77 | 1025.7 |
| 20260507083708 | 52 | 191 | 0.0 | 0.0 | 0.00 | 0.00 | 0.00 | 77 | 1025.7 |
| 20260507083204 | 53 | 163 | 0.0 | 0.0 | 0.00 | 0.00 | 0.00 | 78 | 1025.7 |
| 20260507082700 | 53 | 190 | 0.0 | 2.6 | 0.00 | 0.00 | 0.00 | 78 | 1025.9 |
| 20260507082156 | 53 | 179 | 0.0 | 0.0 | 0.00 | 0.00 | 0.00 | 79 | 1025.8 |
| 20260507081653 | 53 | 152 | 0.0 | 0.0 | 0.00 | 0.00 | 0.00 | 79 | 1025.7 |
| 20260507081149 | 53 | 208 | 0.0 | 0.0 | 0.00 | 0.00 | 0.00 | 79 | 1025.6 |
| 20260507080646 | 53 | 216 | 0.0 | 0.0 | 0.00 | 0.00 | 0.00 | 79 | 1025.6 |
| 20260507080142 | 53 | 215 | 0.0 | 0.0 | 0.00 | 0.00 | 0.00 | 79 | 1025.7 |
| 20260507075637 | 53 | 226 | 0.0 | 0.0 | 0.00 | 0.00 | 0.00 | 79 | 1025.7 |
| 20260507075134 | 53 | 244 | 0.0 | 0.0 | 0.00 | 0.00 | 0.00 | 79 | 1025.8 |
| 20260507074631 | 53 | 152 | 0.0 | 0.0 | 0.00 | 0.00 | 0.00 | 79 | 1025.8 |
| 20260507074129 | 53 | 206 | 0.0 | 0.0 | 0.00 | 0.00 | 0.00 | 79 | 1025.7 |
| 20260507073625 | 53 | 204 | 0.0 | 0.0 | 0.00 | 0.00 | 0.00 | 79 | 1025.7 |
| 20260507073121 | 53 | 179 | 0.0 | 2.6 | 0.00 | 0.00 | 0.00 | 79 | 1025.7 |
| 20260507072619 | 53 | 197 | 0.0 | 0.0 | 0.00 | 0.00 | 0.00 | 78 | 1025.7 |
| 20260507072116 | 53 | 171 | 0.0 | 2.6 | 0.00 | 0.00 | 0.00 | 78 | 1025.6 |
| 20260507071613 | 53 | 191 | 0.0 | 2.6 | 0.00 | 0.00 | 0.00 | 78 | 1025.7 |
| 20260507071110 | 54 | 160 | 0.0 | 0.0 | 0.00 | 0.00 | 0.00 | 77 | 1025.6 |
| 20260507070607 | 54 | 245 | 0.0 | 0.0 | 0.00 | 0.00 | 0.00 | 77 | 1025.5 |
| 20260507070104 | 54 | 202 | 0.0 | 0.0 | 0.00 | 0.00 | 0.00 | 77 | 1025.7 |
| 20260507065600 | 54 | 219 | 0.0 | 0.0 | 0.00 | 0.00 | 0.00 | 78 | 1025.6 |
| 20260507065057 | 54 | 172 | 0.0 | 0.0 | 0.00 | 0.00 | 0.00 | 78 | 1025.7 |
| 20260507064555 | 54 | 211 | 0.0 | 0.0 | 0.00 | 0.00 | 0.00 | 77 | 1025.7 |
| 20260507064054 | 54 | 200 | 0.0 | 0.0 | 0.00 | 0.00 | 0.00 | 77 | 1025.8 |
| 20260507063550 | 54 | 219 | 0.0 | 2.6 | 0.00 | 0.00 | 0.00 | 77 | 1025.7 |
| 20260507063048 | 54 | 209 | 0.0 | 0.0 | 0.00 | 0.00 | 0.00 | 77 | 1025.7 |
| 20260507062544 | 54 | 219 | 0.0 | 0.0 | 0.00 | 0.00 | 0.00 | 77 | 1025.6 |
| 20260507062042 | 54 | 225 | 0.0 | 0.0 | 0.00 | 0.00 | 0.00 | 77 | 1025.8 |
| 20260507061539 | 54 | 243 | 0.0 | 0.0 | 0.00 | 0.00 | 0.00 | 77 | 1025.8 |
| 20260507061037 | 54 | 149 | 0.0 | 0.0 | 0.00 | 0.00 | 0.00 | 77 | 1025.6 |
| 20260507060535 | 54 | 229 | 0.0 | 0.0 | 0.00 | 0.00 | 0.00 | 77 | 1025.6 |
| 20260507060032 | 55 | 301 | 0.0 | 0.0 | 0.00 | 0.00 | 0.00 | 76 | 1025.6 |
| 20260507055531 | 55 | 222 | 0.0 | 0.0 | 0.00 | 0.00 | 0.00 | 76 | 1025.5 |
| 20260507055028 | 55 | 306 | 0.0 | 0.0 | 0.00 | 0.00 | 0.00 | 76 | 1025.8 |
| 20260507054524 | 55 | 259 | 0.0 | 0.0 | 0.00 | 0.00 | 0.00 | 76 | 1025.7 |
| 20260507054021 | 55 | 281 | 0.0 | 0.0 | 0.00 | 0.00 | 0.00 | 75 | 1025.7 |
| 20260507053519 | 55 | 246 | 0.0 | 0.0 | 0.00 | 0.00 | 0.00 | 75 | 1025.6 |
| 20260507053018 | 55 | 240 | 0.0 | 0.0 | 0.00 | 0.00 | 0.00 | 75 | 1025.7 |
| 20260507052515 | 55 | 298 | 0.9 | 2.6 | 0.00 | 0.00 | 0.00 | 74 | 1025.7 |
| 20260507052011 | 55 | 293 | 0.0 | 2.6 | 0.00 | 0.00 | 0.00 | 73 | 1025.6 |
| 20260507051509 | 55 | 233 | 0.0 | 2.6 | 0.00 | 0.00 | 0.00 | 73 | 1025.7 |
| 20260507051006 | 56 | 284 | 0.0 | 0.0 | 0.00 | 0.00 | 0.00 | 72 | 1025.8 |
| 20260507050502 | 56 | 301 | 2.6 | 4.3 | 0.00 | 0.00 | 0.00 | 72 | 1025.8 |
| 20260507045959 | 56 | 275 | 0.9 | 2.6 | 0.00 | 0.00 | 0.00 | 72 | 1025.7 |
| 20260507045455 | 56 | 252 | 0.0 | 2.6 | 0.00 | 0.00 | 0.00 | 72 | 1025.8 |
| 20260507044953 | 56 | 234 | 0.0 | 0.0 | 0.00 | 0.00 | 0.00 | 71 | 1025.7 |
| 20260507044450 | 56 | 211 | 0.0 | 0.0 | 0.00 | 0.00 | 0.00 | 71 | 1025.8 |
| 20260507043946 | 56 | 278 | 0.9 | 4.3 | 0.00 | 0.00 | 0.00 | 71 | 1025.8 |
| 20260507043442 | 56 | 247 | 0.0 | 0.0 | 0.00 | 0.00 | 0.00 | 71 | 1025.6 |
| 20260507042938 | 56 | 259 | 0.0 | 2.6 | 0.00 | 0.00 | 0.00 | 71 | 1025.7 |
| 20260507042436 | 56 | 261 | 0.0 | 2.6 | 0.00 | 0.00 | 0.00 | 71 | 1025.6 |
| 20260507041931 | 56 | 180 | 0.0 | 0.0 | 0.00 | 0.00 | 0.00 | 71 | 1025.7 |
| 20260507041428 | 56 | 237 | 0.0 | 0.0 | 0.00 | 0.00 | 0.00 | 71 | 1025.9 |
| 20260507040926 | 56 | 235 | 0.0 | 0.0 | 0.00 | 0.00 | 0.00 | 71 | 1025.5 |
| 20260507040421 | 57 | 205 | 0.0 | 0.0 | 0.00 | 0.00 | 0.00 | 70 | 1025.6 |
| 20260507035917 | 57 | 158 | 0.0 | 4.3 | 0.00 | 0.00 | 0.00 | 70 | 1025.6 |
| 20260507035414 | 57 | 126 | 0.0 | 4.3 | 0.00 | 0.00 | 0.00 | 70 | 1025.5 |
| 20260507034911 | 57 | 254 | 0.9 | 2.6 | 0.00 | 0.00 | 0.00 | 70 | 1025.5 |
| 20260507034407 | 57 | 203 | 0.0 | 0.0 | 0.00 | 0.00 | 0.00 | 70 | 1025.5 |
| 20260507033905 | 57 | 226 | 0.0 | 0.0 | 0.00 | 0.00 | 0.00 | 70 | 1025.5 |
| 20260507033403 | 57 | 215 | 0.0 | 0.0 | 0.00 | 0.00 | 0.00 | 69 | 1025.2 |
| 20260507032900 | 57 | 226 | 0.0 | 0.0 | 0.00 | 0.00 | 0.00 | 69 | 1025.4 |
| 20260507032357 | 57 | 322 | 0.0 | 6.1 | 0.00 | 0.00 | 0.00 | 69 | 1025.2 |
| 20260507031853 | 57 | 230 | 0.0 | 0.0 | 0.00 | 0.00 | 0.00 | 69 | 1025.2 |
| 20260507031350 | 57 | 207 | 0.0 | 0.0 | 0.00 | 0.00 | 0.00 | 69 | 1025.2 |
| 20260507030846 | 57 | 208 | 0.0 | 0.0 | 0.00 | 0.00 | 0.00 | 69 | 1025.1 |
| 20260507030344 | 57 | 221 | 0.0 | 0.0 | 0.00 | 0.00 | 0.00 | 69 | 1025.1 |
| 20260507025840 | 57 | 237 | 0.0 | 0.0 | 0.00 | 0.00 | 0.00 | 69 | 1025.1 |
| 20260507025338 | 57 | 222 | 0.0 | 0.0 | 0.00 | 0.00 | 0.00 | 69 | 1025.2 |
| 20260507024836 | 57 | 236 | 0.0 | 0.0 | 0.00 | 0.00 | 0.00 | 68 | 1025.2 |
| 20260507024333 | 58 | 206 | 0.0 | 0.0 | 0.00 | 0.00 | 0.00 | 68 | 1025.1 |
| 20260507023828 | 58 | 208 | 0.0 | 0.0 | 0.00 | 0.00 | 0.00 | 68 | 1025.1 |
| 20260507023325 | 58 | 209 | 0.0 | 0.0 | 0.00 | 0.00 | 0.00 | 68 | 1025.1 |
| 20260507022823 | 58 | 249 | 0.0 | 0.0 | 0.00 | 0.00 | 0.00 | 68 | 1025.1 |
| 20260507022319 | 58 | 233 | 0.0 | 2.6 | 0.00 | 0.00 | 0.00 | 68 | 1024.8 |
| 20260507021815 | 58 | 239 | 0.0 | 0.0 | 0.00 | 0.00 | 0.00 | 68 | 1024.9 |
| 20260507021311 | 58 | 208 | 0.0 | 0.0 | 0.00 | 0.00 | 0.00 | 68 | 1024.9 |
| 20260507020809 | 58 | 229 | 0.0 | 0.0 | 0.00 | 0.00 | 0.00 | 68 | 1025.0 |
| 20260507020305 | 59 | 269 | 0.0 | 0.0 | 0.00 | 0.00 | 0.00 | 68 | 1025.0 |
| 20260507015803 | 59 | 201 | 0.0 | 0.0 | 0.00 | 0.00 | 0.00 | 68 | 1024.8 |
| 20260507015300 | 59 | 232 | 0.0 | 0.0 | 0.00 | 0.00 | 0.00 | 67 | 1025.0 |
| 20260507014757 | 59 | 209 | 0.0 | 0.0 | 0.00 | 0.00 | 0.00 | 68 | 1025.0 |
| 20260507014253 | 59 | 270 | 1.7 | 4.3 | 0.00 | 0.00 | 0.00 | 67 | 1024.8 |
| 20260507013749 | 59 | 243 | 0.0 | 2.6 | 0.00 | 0.00 | 0.00 | 67 | 1024.8 |
| 20260507013247 | 59 | 254 | 0.0 | 0.0 | 0.00 | 0.00 | 0.00 | 67 | 1024.9 |
| 20260507012744 | 59 | 200 | 0.0 | 0.0 | 0.00 | 0.00 | 0.00 | 67 | 1024.9 |
| 20260507012245 | 59 | 241 | 0.0 | 0.0 | 0.00 | 0.00 | 0.00 | 67 | 1024.8 |
| 20260507011743 | 59 | 212 | 0.0 | 4.3 | 0.00 | 0.00 | 0.00 | 67 | 1024.8 |
| 20260507011239 | 59 | 250 | 0.0 | 2.6 | 0.00 | 0.00 | 0.00 | 66 | 1025.0 |
| 20260507010738 | 60 | 210 | 0.0 | 2.6 | 0.00 | 0.00 | 0.00 | 66 | 1025.0 |
| 20260507010235 | 60 | 211 | 0.0 | 0.0 | 0.00 | 0.00 | 0.00 | 66 | 1024.9 |
| 20260507005733 | 60 | 191 | 0.0 | 0.0 | 0.00 | 0.00 | 0.00 | 66 | 1025.0 |
| 20260507005229 | 60 | 234 | 0.0 | 2.6 | 0.00 | 0.00 | 0.00 | 65 | 1025.0 |
| 20260507004725 | 60 | 241 | 0.0 | 2.6 | 0.00 | 0.00 | 0.00 | 65 | 1025.1 |
| 20260507004223 | 60 | 220 | 0.9 | 6.1 | 0.00 | 0.00 | 0.00 | 66 | 1024.8 |
| 20260507003719 | 60 | 279 | 0.0 | 4.3 | 0.00 | 0.00 | 0.00 | 66 | 1024.9 |
| 20260507003214 | 60 | 292 | 0.9 | 4.3 | 0.00 | 0.00 | 0.00 | 65 | 1025.3 |
| 20260507002711 | 60 | 211 | 0.0 | 2.6 | 0.00 | 0.00 | 0.00 | 65 | 1025.0 |
| 20260507002207 | 60 | 242 | 0.0 | 2.6 | 0.00 | 0.00 | 0.00 | 65 | 1025.1 |
| 20260507001704 | 60 | 230 | 0.0 | 0.0 | 0.00 | 0.00 | 0.00 | 65 | 1025.0 |
| 20260507001201 | 59 | 302 | 3.5 | 8.7 | 0.00 | 0.00 | 0.00 | 65 | 1025.1 |
| 20260507000657 | 60 | 258 | 1.7 | 2.6 | 0.00 | 0.00 | 0.00 | 65 | 1024.8 |
| 20260507000153 | 60 | 292 | 0.0 | 2.6 | 0.00 | 0.00 | 0.00 | 65 | 1025.0 |
| 20260506235650 | 60 | 273 | 5.2 | 6.1 | 0.00 | 0.00 | 0.00 | 65 | 1025.0 |
| 20260506235145 | 61 | 223 | 0.0 | 2.6 | 0.00 | 0.00 | 0.00 | 64 | 1025.0 |
| 20260506234643 | 60 | 230 | 0.0 | 2.6 | 0.00 | 0.00 | 0.00 | 64 | 1024.9 |
| 20260506234140 | 60 | 197 | 0.0 | 0.0 | 0.00 | 0.00 | 0.00 | 63 | 1024.9 |
| 20260506233637 | 60 | 277 | 0.9 | 4.3 | 0.00 | 0.00 | 0.00 | 63 | 1025.0 |
| 20260506233134 | 60 | 313 | 0.0 | 4.3 | 0.00 | 0.00 | 0.00 | 64 | 1024.9 |
| 20260506232630 | 60 | 186 | 0.0 | 0.0 | 0.00 | 0.00 | 0.00 | 65 | 1025.2 |
| 20260506232125 | 60 | 211 | 0.0 | 0.0 | 0.00 | 0.00 | 0.00 | 66 | 1025.0 |
| 20260506231623 | 59 | 282 | 0.0 | 2.6 | 0.00 | 0.00 | 0.00 | 66 | 1025.1 |
| 20260506231121 | 59 | 260 | 1.7 | 6.1 | 0.00 | 0.00 | 0.00 | 66 | 1025.2 |
| 20260506230618 | 59 | 274 | 0.0 | 4.3 | 0.00 | 0.00 | 0.00 | 66 | 1025.2 |
| 20260506230115 | 59 | 287 | 1.7 | 6.1 | 0.00 | 0.00 | 0.00 | 66 | 1025.2 |
| 20260506225611 | 59 | 211 | 0.0 | 0.0 | 0.00 | 0.00 | 0.00 | 66 | 1025.1 |
| 20260506225108 | 59 | 310 | 0.0 | 0.0 | 0.00 | 0.00 | 0.00 | 66 | 1025.1 |
| 20260506224604 | 60 | 273 | 0.0 | 0.0 | 0.00 | 0.00 | 0.00 | 65 | 1025.2 |
| 20260506224101 | 60 | 203 | 0.0 | 0.0 | 0.00 | 0.00 | 0.00 | 64 | 1025.2 |
| 20260506223557 | 60 | 185 | 0.0 | 0.0 | 0.00 | 0.00 | 0.00 | 65 | 1025.3 |
| 20260506223053 | 59 | 207 | 0.0 | 0.0 | 0.00 | 0.00 | 0.00 | 66 | 1025.1 |
| 20260506222550 | 59 | 277 | 0.0 | 4.3 | 0.00 | 0.00 | 0.00 | 67 | 1025.4 |
| 20260506222047 | 59 | 293 | 2.6 | 4.3 | 0.00 | 0.00 | 0.00 | 67 | 1025.4 |
| 20260506221544 | 59 | 282 | 0.0 | 0.0 | 0.00 | 0.00 | 0.00 | 67 | 1025.3 |
| 20260506221042 | 58 | 299 | 0.0 | 0.0 | 0.00 | 0.00 | 0.00 | 67 | 1025.6 |
| 20260506220538 | 59 | 204 | 0.0 | 0.0 | 0.00 | 0.00 | 0.00 | 67 | 1025.4 |
| 20260506220034 | 58 | 335 | 3.5 | 4.3 | 0.00 | 0.00 | 0.00 | 67 | 1025.6 |
| 20260506215531 | 58 | 220 | 0.0 | 0.0 | 0.00 | 0.00 | 0.00 | 68 | 1025.6 |
| 20260506215026 | 58 | 279 | 0.0 | 0.0 | 0.00 | 0.00 | 0.00 | 68 | 1025.6 |
| 20260506214524 | 58 | 289 | 0.0 | 0.0 | 0.00 | 0.00 | 0.00 | 68 | 1025.5 |
| 20260506214021 | 58 | 252 | 0.9 | 2.6 | 0.00 | 0.00 | 0.00 | 68 | 1025.5 |
| 20260506213519 | 58 | 263 | 0.0 | 0.0 | 0.00 | 0.00 | 0.00 | 68 | 1025.5 |
| 20260506213016 | 58 | 294 | 0.0 | 4.3 | 0.00 | 0.00 | 0.00 | 68 | 1025.5 |
| 20260506212512 | 58 | 292 | 1.7 | 4.3 | 0.00 | 0.00 | 0.00 | 68 | 1025.5 |
| 20260506212007 | 58 | 297 | 0.0 | 0.0 | 0.00 | 0.00 | 0.00 | 68 | 1025.6 |
| 20260506211503 | 58 | 293 | 2.6 | 6.1 | 0.00 | 0.00 | 0.00 | 68 | 1025.4 |
| 20260506211001 | 59 | 229 | 0.0 | 0.0 | 0.00 | 0.00 | 0.00 | 68 | 1025.4 |
| 20260506210457 | 58 | 307 | 0.9 | 4.3 | 0.00 | 0.00 | 0.00 | 68 | 1025.5 |
| 20260506205954 | 59 | 292 | 1.7 | 6.1 | 0.00 | 0.00 | 0.00 | 67 | 1025.3 |
| 20260506205450 | 59 | 280 | 0.0 | 0.0 | 0.00 | 0.00 | 0.00 | 67 | 1025.3 |
| 20260506204946 | 59 | 246 | 0.0 | 0.0 | 0.00 | 0.00 | 0.00 | 68 | 1025.3 |
| 20260506204444 | 59 | 294 | 0.0 | 0.0 | 0.00 | 0.00 | 0.00 | 67 | 1025.3 |
| 20260506203941 | 59 | 295 | 0.0 | 0.0 | 0.00 | 0.00 | 0.00 | 69 | 1025.5 |
| 20260506203438 | 59 | 245 | 0.0 | 0.0 | 0.00 | 0.00 | 0.00 | 69 | 1025.4 |
| 20260506202935 | 59 | 224 | 0.0 | 0.0 | 0.00 | 0.00 | 0.00 | 69 | 1025.1 |
| 20260506202432 | 59 | 252 | 0.0 | 0.0 | 0.00 | 0.00 | 0.00 | 69 | 1024.9 |
| 20260506201929 | 59 | 238 | 0.0 | 0.0 | 0.00 | 0.00 | 0.00 | 69 | 1025.1 |
| 20260506201426 | 58 | 130 | 0.0 | 0.0 | 0.00 | 0.00 | 0.00 | 71 | 1025.2 |
| 20260506200923 | 58 | 235 | 0.0 | 0.0 | 0.00 | 0.00 | 0.00 | 72 | 1025.2 |
| 20260506200419 | 58 | 223 | 0.0 | 0.0 | 0.00 | 0.00 | 0.00 | 71 | 1025.4 |
| 20260506195916 | 58 | 214 | 0.0 | 0.0 | 0.00 | 0.00 | 0.00 | 73 | 1025.1 |
| 20260506195413 | 57 | 280 | 0.9 | 4.3 | 0.00 | 0.00 | 0.00 | 72 | 1025.1 |
| 20260506194909 | 58 | 243 | 0.0 | 0.0 | 0.00 | 0.00 | 0.00 | 72 | 1025.2 |
| 20260506194406 | 58 | 135 | 0.0 | 0.0 | 0.00 | 0.00 | 0.00 | 72 | 1025.1 |
| 20260506193903 | 58 | 228 | 0.0 | 0.0 | 0.00 | 0.00 | 0.00 | 72 | 1025.1 |
| 20260506193400 | 58 | 204 | 0.0 | 0.0 | 0.00 | 0.00 | 0.00 | 73 | 1024.9 |
| 20260506192856 | 57 | 231 | 0.0 | 0.0 | 0.00 | 0.00 | 0.00 | 73 | 1025.2 |
| 20260506192354 | 57 | 89 | 0.0 | 0.0 | 0.00 | 0.00 | 0.00 | 73 | 1025.0 |
| 20260506191851 | 58 | 222 | 0.0 | 0.0 | 0.00 | 0.00 | 0.00 | 73 | 1025.2 |
| 20260506191347 | 57 | 199 | 0.0 | 0.0 | 0.00 | 0.00 | 0.00 | 73 | 1025.0 |
| 20260506190844 | 57 | 254 | 0.0 | 2.6 | 0.00 | 0.00 | 0.00 | 74 | 1024.9 |
| 20260506190340 | 57 | 170 | 0.0 | 4.3 | 0.00 | 0.00 | 0.00 | 73 | 1025.0 |
| 20260506185837 | 57 | 229 | 0.0 | 2.6 | 0.00 | 0.00 | 0.00 | 73 | 1025.1 |
| 20260506185334 | 57 | 126 | 2.6 | 4.3 | 0.00 | 0.00 | 0.00 | 73 | 1025.0 |
| 20260506184831 | 57 | 183 | 0.0 | 2.6 | 0.00 | 0.00 | 0.00 | 73 | 1025.2 |
| 20260506184328 | 57 | 142 | 0.0 | 2.6 | 0.00 | 0.00 | 0.00 | 73 | 1025.1 |
| 20260506183826 | 57 | 181 | 0.0 | 0.0 | 0.00 | 0.00 | 0.00 | 73 | 1025.1 |
| 20260506183321 | 57 | 210 | 0.0 | 6.1 | 0.00 | 0.00 | 0.00 | 73 | 1025.0 |
| 20260506182819 | 57 | 271 | 0.0 | 4.3 | 0.00 | 0.00 | 0.00 | 73 | 1025.0 |
| 20260506182315 | 57 | 158 | 0.9 | 6.1 | 0.00 | 0.00 | 0.00 | 73 | 1024.8 |
| 20260506181813 | 57 | 153 | 0.0 | 0.0 | 0.00 | 0.00 | 0.00 | 73 | 1024.8 |
| 20260506181311 | 57 | 196 | 0.0 | 0.0 | 0.00 | 0.00 | 0.00 | 73 | 1025.0 |
| 20260506180808 | 57 | 202 | 0.0 | 0.0 | 0.00 | 0.00 | 0.00 | 74 | 1024.7 |
| 20260506180303 | 57 | 137 | 0.0 | 0.0 | 0.00 | 0.00 | 0.00 | 73 | 1024.9 |
| 20260506175800 | 57 | 176 | 0.0 | 4.3 | 0.00 | 0.00 | 0.00 | 73 | 1024.8 |
| 20260506175257 | 57 | 193 | 0.0 | 0.0 | 0.00 | 0.00 | 0.00 | 73 | 1024.9 |
| 20260506174754 | 58 | 208 | 0.0 | 0.0 | 0.00 | 0.00 | 0.00 | 73 | 1025.1 |
| 20260506174252 | 57 | 230 | 0.0 | 0.0 | 0.00 | 0.00 | 0.00 | 74 | 1024.8 |
| 20260506173749 | 57 | 121 | 0.9 | 2.6 | 0.00 | 0.00 | 0.00 | 74 | 1024.9 |
| 20260506173246 | 57 | 169 | 0.0 | 0.0 | 0.00 | 0.00 | 0.00 | 74 | 1024.9 |
| 20260506172742 | 57 | 172 | 0.0 | 0.0 | 0.00 | 0.00 | 0.00 | 74 | 1025.0 |
| 20260506172239 | 57 | 193 | 0.0 | 0.0 | 0.00 | 0.00 | 0.00 | 74 | 1025.0 |
| 20260506171737 | 56 | 215 | 0.0 | 0.0 | 0.00 | 0.00 | 0.00 | 74 | 1025.0 |
| 20260506171234 | 57 | 163 | 0.0 | 0.0 | 0.00 | 0.00 | 0.00 | 73 | 1025.1 |
| 20260506170731 | 57 | 192 | 0.0 | 4.3 | 0.00 | 0.00 | 0.00 | 74 | 1024.8 |
| 20260506170228 | 56 | 183 | 0.0 | 0.0 | 0.00 | 0.00 | 0.00 | 75 | 1025.0 |
| 20260506165726 | 56 | 225 | 0.0 | 0.0 | 0.00 | 0.00 | 0.00 | 75 | 1024.6 |
| 20260506165223 | 56 | 225 | 0.0 | 0.0 | 0.00 | 0.00 | 0.00 | 75 | 1024.7 |
| 20260506164720 | 57 | 231 | 0.0 | 0.0 | 0.00 | 0.00 | 0.00 | 74 | 1024.7 |
| 20260506164217 | 56 | 171 | 0.0 | 0.0 | 0.00 | 0.00 | 0.00 | 74 | 1024.5 |
| 20260506163714 | 56 | 191 | 0.0 | 0.0 | 0.00 | 0.00 | 0.00 | 75 | 1024.7 |
| 20260506163209 | 56 | 214 | 0.0 | 4.3 | 0.00 | 0.00 | 0.00 | 75 | 1024.5 |
| 20260506162705 | 56 | 167 | 0.0 | 0.0 | 0.00 | 0.00 | 0.00 | 75 | 1024.4 |
| 20260506162203 | 56 | 137 | 0.0 | 0.0 | 0.00 | 0.00 | 0.00 | 75 | 1024.4 |
| 20260506161700 | 56 | 183 | 0.0 | 0.0 | 0.00 | 0.00 | 0.00 | 76 | 1024.4 |
| 20260506161156 | 56 | 199 | 0.0 | 0.0 | 0.00 | 0.00 | 0.00 | 78 | 1024.4 |
| 20260506160654 | 55 | 152 | 0.0 | 2.6 | 0.00 | 0.00 | 0.00 | 78 | 1024.4 |
| 20260506160151 | 55 | 194 | 0.0 | 0.0 | 0.00 | 0.00 | 0.00 | 78 | 1024.9 |
| 20260506155649 | 55 | 140 | 0.0 | 0.0 | 0.00 | 0.00 | 0.00 | 78 | 1024.8 |
| 20260506155146 | 55 | 171 | 0.0 | 0.0 | 0.00 | 0.00 | 0.00 | 78 | 1024.8 |
| 20260506153248 | 55 | 163 | 0.0 | 0.0 | 0.00 | 0.00 | 0.00 | 80 | 1024.3 |
| 20260506152745 | 54 | 122 | 0.0 | 4.3 | 0.00 | 0.00 | 0.00 | 80 | 1024.4 |
| 20260506152242 | 54 | 132 | 1.7 | 4.3 | 0.00 | 0.00 | 0.00 | 80 | 1024.4 |
| 20260506151741 | 54 | 159 | 0.0 | 0.0 | 0.00 | 0.00 | 0.00 | 80 | 1024.4 |
| 20260506151237 | 54 | 197 | 0.0 | 0.0 | 0.00 | 0.00 | 0.00 | 80 | 1024.5 |
| 20260506150734 | 54 | 145 | 0.0 | 4.3 | 0.00 | 0.00 | 0.00 | 79 | 1024.6 |
| 20260506150231 | 54 | 208 | 0.0 | 0.0 | 0.00 | 0.00 | 0.00 | 79 | 1024.4 |
| 20260506145728 | 54 | 222 | 0.0 | 2.6 | 0.00 | 0.00 | 0.00 | 79 | 1024.5 |
| 20260506145224 | 54 | 201 | 0.0 | 0.0 | 0.00 | 0.00 | 0.00 | 79 | 1024.5 |
| 20260506144722 | 54 | 220 | 0.0 | 0.0 | 0.00 | 0.00 | 0.00 | 79 | 1024.6 |
| 20260506144219 | 54 | 239 | 0.0 | 2.6 | 0.00 | 0.00 | 0.00 | 80 | 1024.2 |
| 20260506143716 | 54 | 214 | 0.0 | 2.6 | 0.00 | 0.00 | 0.00 | 79 | 1024.3 |
| 20260506143214 | 54 | 242 | 0.0 | 0.0 | 0.00 | 0.00 | 0.00 | 80 | 1024.0 |
| 20260506142712 | 54 | 122 | 0.0 | 2.6 | 0.00 | 0.00 | 0.00 | 79 | 1024.0 |
| 20260506142210 | 55 | 177 | 0.0 | 0.0 | 0.00 | 0.00 | 0.00 | 79 | 1024.3 |
| 20260506141708 | 54 | 169 | 0.0 | 4.3 | 0.00 | 0.00 | 0.00 | 79 | 1024.2 |
| 20260506141206 | 55 | 117 | 0.0 | 2.6 | 0.00 | 0.00 | 0.00 | 79 | 1024.3 |
| 20260506140703 | 55 | 126 | 0.0 | 0.0 | 0.00 | 0.00 | 0.00 | 78 | 1024.5 |
| 20260506140200 | 54 | 204 | 0.0 | 0.0 | 0.00 | 0.00 | 0.00 | 78 | 1024.3 |
| 20260506135657 | 54 | 142 | 0.0 | 2.6 | 0.00 | 0.00 | 0.00 | 79 | 1024.1 |
| 20260506135153 | 54 | 164 | 0.0 | 0.0 | 0.00 | 0.00 | 0.00 | 79 | 1024.3 |
| 20260506134650 | 54 | 228 | 0.0 | 0.0 | 0.00 | 0.00 | 0.00 | 79 | 1024.2 |
| 20260506134146 | 54 | 207 | 0.0 | 0.0 | 0.00 | 0.00 | 0.00 | 79 | 1024.0 |
| 20260506133643 | 54 | 240 | 1.7 | 4.3 | 0.00 | 0.00 | 0.00 | 80 | 1024.2 |
| 20260506133140 | 54 | 218 | 0.0 | 2.6 | 0.00 | 0.00 | 0.00 | 80 | 1024.2 |
| 20260506132637 | 54 | 189 | 0.0 | 0.0 | 0.00 | 0.00 | 0.00 | 80 | 1024.1 |
| 20260506132134 | 54 | 130 | 0.0 | 2.6 | 0.00 | 0.00 | 0.00 | 80 | 1023.7 |
| 20260506131632 | 54 | 212 | 0.0 | 4.3 | 0.00 | 0.00 | 0.00 | 81 | 1023.6 |
| 20260506131128 | 54 | 235 | 0.0 | 0.0 | 0.00 | 0.00 | 0.00 | 81 | 1023.7 |
| 20260506130625 | 54 | 180 | 0.0 | 0.0 | 0.00 | 0.00 | 0.00 | 82 | 1023.6 |
| 20260506130122 | 54 | 128 | 0.0 | 0.0 | 0.00 | 0.00 | 0.00 | 82 | 1023.7 |
| 20260506125620 | 54 | 151 | 0.0 | 0.0 | 0.00 | 0.00 | 0.00 | 82 | 1023.7 |
| 20260506125118 | 54 | 147 | 0.0 | 0.0 | 0.00 | 0.00 | 0.00 | 82 | 1023.6 |
| 20260506124615 | 54 | 212 | 0.0 | 0.0 | 0.00 | 0.00 | 0.00 | 82 | 1023.5 |
| 20260506124113 | 54 | 192 | 0.0 | 0.0 | 0.00 | 0.00 | 0.00 | 82 | 1023.6 |
| 20260506123610 | 54 | 208 | 0.0 | 0.0 | 0.00 | 0.00 | 0.00 | 82 | 1023.6 |
| 20260506123109 | 54 | 177 | 0.0 | 0.0 | 0.00 | 0.00 | 0.00 | 82 | 1023.1 |
| 20260506122605 | 54 | 144 | 0.0 | 0.0 | 0.00 | 0.00 | 0.00 | 82 | 1023.4 |
| 20260506122103 | 54 | 214 | 0.0 | 0.0 | 0.00 | 0.00 | 0.00 | 82 | 1023.4 |
| 20260506121601 | 54 | 156 | 0.0 | 0.0 | 0.00 | 0.00 | 0.00 | 82 | 1023.4 |
| 20260506121056 | 54 | 137 | 0.0 | 0.0 | 0.00 | 0.00 | 0.00 | 82 | 1023.4 |
| 20260506120555 | 54 | 146 | 0.0 | 0.0 | 0.00 | 0.00 | 0.00 | 82 | 1023.2 |
| 20260506120051 | 54 | 211 | 0.0 | 0.0 | 0.00 | 0.00 | 0.00 | 82 | 1023.2 |
| 20260506115549 | 54 | 190 | 0.0 | 0.0 | 0.00 | 0.00 | 0.00 | 82 | 1023.2 |
| 20260506115048 | 54 | 198 | 0.0 | 0.0 | 0.00 | 0.00 | 0.00 | 81 | 1023.1 |
| 20260506114545 | 55 | 197 | 0.0 | 0.0 | 0.00 | 0.00 | 0.00 | 81 | 1023.0 |
| 20260506114043 | 55 | 202 | 0.0 | 0.0 | 0.00 | 0.00 | 0.00 | 81 | 1023.1 |
| 20260506113541 | 55 | 209 | 0.0 | 0.0 | 0.00 | 0.00 | 0.00 | 80 | 1023.2 |
| 20260506113038 | 55 | 250 | 0.0 | 0.0 | 0.00 | 0.00 | 0.00 | 80 | 1023.3 |
| 20260506112534 | 55 | 229 | 0.0 | 0.0 | 0.00 | 0.00 | 0.00 | 80 | 1023.4 |
| 20260506112032 | 55 | 183 | 0.0 | 0.0 | 0.00 | 0.00 | 0.00 | 80 | 1023.1 |
| 20260506111530 | 55 | 192 | 0.0 | 0.0 | 0.00 | 0.00 | 0.00 | 79 | 1023.2 |
| 20260506111027 | 55 | 220 | 0.0 | 0.0 | 0.00 | 0.00 | 0.00 | 79 | 1022.9 |
| 20260506110524 | 55 | 235 | 0.0 | 0.0 | 0.00 | 0.00 | 0.00 | 79 | 1023.0 |
| 20260506110021 | 55 | 208 | 0.0 | 0.0 | 0.00 | 0.00 | 0.00 | 79 | 1023.1 |
| 20260506105517 | 55 | 191 | 0.0 | 0.0 | 0.00 | 0.00 | 0.00 | 79 | 1022.8 |
| 20260506105015 | 55 | 238 | 0.0 | 0.0 | 0.00 | 0.00 | 0.00 | 78 | 1023.0 |
| 20260506104513 | 55 | 229 | 0.0 | 0.0 | 0.00 | 0.00 | 0.00 | 78 | 1022.9 |
| 20260506104010 | 55 | 212 | 0.0 | 0.0 | 0.00 | 0.00 | 0.00 | 78 | 1022.7 |
| 20260506103507 | 55 | 218 | 0.0 | 0.0 | 0.00 | 0.00 | 0.00 | 78 | 1022.7 |
| 20260506103004 | 55 | 237 | 0.0 | 0.0 | 0.00 | 0.00 | 0.00 | 78 | 1022.7 |
| 20260506102503 | 55 | 225 | 0.0 | 0.0 | 0.00 | 0.00 | 0.00 | 78 | 1022.8 |
| 20260506101959 | 55 | 246 | 0.0 | 0.0 | 0.00 | 0.00 | 0.00 | 78 | 1022.7 |
| 20260506101455 | 55 | 209 | 0.0 | 0.0 | 0.00 | 0.00 | 0.00 | 78 | 1022.6 |
| 20260506100953 | 55 | 251 | 0.0 | 0.0 | 0.00 | 0.00 | 0.00 | 78 | 1022.6 |
| 20260506100451 | 55 | 220 | 0.0 | 0.0 | 0.00 | 0.00 | 0.00 | 78 | 1022.4 |
| 20260506095949 | 55 | 191 | 0.0 | 0.0 | 0.00 | 0.00 | 0.00 | 78 | 1022.4 |
| 20260506095447 | 55 | 189 | 0.0 | 0.0 | 0.00 | 0.00 | 0.00 | 78 | 1022.3 |
| 20260506094943 | 55 | 193 | 0.0 | 0.0 | 0.00 | 0.00 | 0.00 | 78 | 1022.3 |
| 20260506094442 | 55 | 231 | 0.0 | 0.0 | 0.00 | 0.00 | 0.00 | 78 | 1022.4 |
| 20260506093939 | 55 | 229 | 0.0 | 0.0 | 0.00 | 0.00 | 0.00 | 77 | 1022.4 |